Tracking 35331 objects as of 14-Sep-2026
HD Live streaming from Space Station
objects crossing your sky now

FOX-1D (AO-92)


FOX-1D (AO-92) is no longer on orbit
FOX-1D (AO-92) is classified as:


NORAD ID: 43137
Int'l Code: 2018-004A
Launch date: January 12, 2018
Source: United States (US)
Launch site: SRIHARIKOTA (SRI)
Decay date: 2024-02-07

Uplink (MHz): 435.350/1267.350
Downlink (MHz): 145.880
Beacon (MHz): 145.880
Mode: FM CTCSS 67.0/200 DUV
Call sign:
Status: Reentered


Uplink (MHz): 435.350/1267.350
Downlink (MHz): 145.880
Beacon (MHz): 145.880
Mode: FM* CTCSS 67.0/200 DUV
Call sign:
Status: Reentered

Your satellite tracking list
Your tracking list is empty




NASA's NSSDC Master Catalog

Two Line Element Set (TLE):
1 43137U 18004AC  24033.82494968  .13075370  24468-5  25682-3 0  9994
2 43137  97.2729 126.2745 0011105 309.1902  50.8414 16.46500565338357
Source of the keplerian elements: AFSPC